Location: ???????
(60.2364°N, 46.9475°E)
Time: 13:35:39
(UTC+00:00)

Daily predictions for brighter satellites

Satellite Brightness Start Highest point End
(mag) Time Altitude Azimuth Time Altitude Azimuth Time Altitude Azimuth
RESURS DK-1 4.1 13:42:24 10° WNW 13:45:44 22° N 13:49:03 10° NE
Cosmos 1892 3.6 13:42:43 10° N 13:46:10 29° ENE 13:49:35 10° SE
Cosmos 1758 4.1 13:43:05 10° SSW 13:47:08 57° WNW 13:51:12 10° N
Cosmos 1486 Rocket 4.1 13:42:21 10° NNW 13:47:42 65° NE 13:53:00 10° SE
Cosmos 2297 4.5 13:42:20 10° WSW 13:47:47 47° NW 13:53:15 10° NE
H-2A R/B 2.3 13:44:51 10° NNE 13:48:54 44° E 13:52:52 10° S
Cosmos 304 Rocket 3.8 13:44:52 10° SSW 13:49:39 78° ESE 13:54:29 10° NE
Meteor 2-21 Rocket 4.5 13:43:28 10° NNW 13:49:42 72° ENE 13:55:50 10° SSE
COSMO-SKYMED 1 4.1 13:47:04 10° NE 13:49:51 16° E 13:52:38 10° SE
Envisat 3.4 13:46:58 10° S 13:52:03 72° WSW 13:57:11 10° NNW
Meteor 2-10 4.2 13:47:02 10° SSW 13:52:05 75° WNW 13:57:11 10° NNE
Cosmos 1908 3.3 13:48:31 10° S 13:52:20 60° E 13:56:12 10° NNE
Radarsat Rocket 4.4 13:46:51 10° SSE 13:52:43 70° WSW 13:58:37 10° NNW
Landsat 5 3.4 13:49:26 10° NNE 13:53:15 54° ESE 13:57:07 10° S
Cosmos 1939 Rocket 3.3 13:49:49 10° SE 13:53:28 38° ENE 13:57:05 10° N
Cosmos 1697 Rocket 4.4 13:52:30 10° ESE 13:53:44 11° E 13:55:00 10° E
Cosmos 1825 Rocket 3.6 13:51:59 10° NNW 13:56:29 89° W 14:00:56 10° SSE
Cosmos 1503 Rocket 4.2 13:52:43 10° NNW 13:57:50 53° NE 14:02:58 10° SE
Cosmos 2263 4.4 13:54:53 10° SW 14:00:40 82° NW 14:06:27 10° NE
Cosmos 1825 3.4 13:59:04 10° N 14:02:06 22° ENE 14:05:08 10° ESE
Cosmos 1300 3.4 14:00:32 10° SSE 14:03:58 33° E 14:07:26 10° NNE
CZ-4B R/B 2.4 14:01:24 10° NE 14:04:09 24° E 14:06:50 10° SSE
Cosmos 1400 Rocket 4.0 14:01:06 10° SE 14:04:23 24° E 14:07:40 10° NE
ERS-2 3.0 14:01:54 10° NE 14:05:08 29° E 14:08:22 10° SSE
Cosmos 2056 Rocket 4.1 14:00:29 10° SW 14:05:33 57° NW 14:10:38 10° NNE
NOAA 11 4.2 14:01:12 10° SSE 14:06:38 76° ENE 14:12:05 10° NNW
Cosmos 2279 Rocket 4.4 14:02:58 10° SSW 14:09:12 70° WNW 14:15:26 10° NNE
Helios 1A Rocket 3.3 14:06:15 10° SE 14:10:08 42° ENE 14:14:01 10° N
Cosmos 1354 Rocket 4.1 14:05:23 10° NNW 14:10:35 57° NE 14:15:47 10° SE
Cosmos 2297 Rocket 2.6 14:05:04 10° NW 14:10:44 69° WSW 14:16:22 10° SSE
YAOGAN 1 3.2 14:06:49 10° SE 14:10:45 35° ENE 14:14:41 10° N
Timation 1 Rocket 4.4 14:05:04 10° NW 14:11:06 67° NE 14:17:07 10° ESE
In-Cosmos 22 Rocket 4.1 14:07:14 10° NNW 14:12:35 66° ENE 14:18:00 10° SSE
Cosmos 44 4.2 14:08:55 10° S 14:12:51 28° ESE 14:16:35 12° ENE
Cosmos 1340 2.6 14:09:51 10° NNW 14:13:40 69° ENE 14:17:26 10° SSE
Cosmos 2369 Rocket 2.7 14:08:57 10° WSW 14:14:36 61° NW 14:20:19 10° NE
CORIOLIS 4.5 14:10:57 10° SSE 14:16:19 74° WSW 14:21:44 10° NNW
Aureole 3 3.9 14:14:00 10° SE 14:16:23 22° E 14:18:51 10° NE
Okean O Rocket 2.2 14:12:43 10° S 14:17:02 62° WSW 14:21:23 10° NNW
SL-16 R/B 4.3 14:13:00 10° NNE 14:18:08 28° NW 14:23:18 10° W
Cosmos 2228 3.1 14:14:18 10° S 14:18:29 57° E 14:22:44 10° NNE
Cosmos 1726 Rocket 3.8 14:14:40 10° SSE 14:18:51 47° E 14:23:06 10° NNE
Cosmos 2058 3.2 14:15:19 10° N 14:19:15 41° ENE 14:23:09 10° SE
Cosmos 1346 Rocket 3.0 14:15:59 10° N 14:19:53 47° ENE 14:23:45 10° SE
CZ-2D R/B 3.4 14:16:16 10° SE 14:19:56 47° ENE 14:23:37 10° N
Resurs 01 Rocket 3.7 14:19:29 10° NE 14:20:04 10° NE 14:20:39 10° NNE
Cosmos 2151 4.1 14:17:46 10° N 14:21:11 23° ENE 14:24:17 11° ESE
CZ-4 R/B 1.7 14:17:41 10° SE 14:21:19 41° ENE 14:24:58 10° N
Cosmos 1452 Rocket 3.6 14:16:13 10° SSW 14:21:31 87° WNW 14:26:51 10° NNE
SL-4 R/B 3.7 14:19:02 10° SW 14:21:45 21° S 14:24:34 10° SE
NOSS 3-4 (A) 3.7 14:16:08 10° WNW 14:22:42 86° NNE 14:30:04 10° ESE
NOSS 3-4 (C) 3.7 14:16:14 10° WNW 14:22:48 85° NNE 14:30:10 10° ESE
EP 3 4.3 14:21:37 10° W 14:23:31 42° NNW 14:24:41 20° NE
Cosmos 1553 Rocket 4.4 14:18:39 10° SSE 14:24:24 39° E 14:30:06 10° NNE
CZ-2C R/B 3.4 14:19:56 10° SE 14:25:24 50° ENE 14:30:41 10° NNW
Cosmos 2227 4.5 14:22:04 10° NW 14:27:34 49° NE 14:32:42 12° ESE
Cosmos 1356 Rocket 4.1 14:23:53 10° SSW 14:28:09 61° WNW 14:32:27 10° NNE
Genesis I 3.8 14:28:02 10° W 14:31:47 46° N 14:34:37 16° ENE
Cosmos 1953 3.7 14:28:31 10° SW 14:32:17 41° WNW 14:36:07 10° N
Cosmos 371 Rocket 4.4 14:27:54 10° WSW 14:32:31 42° NW 14:37:10 10° NNE
NOSS 2-1 (C) 3.2 14:30:53 10° WSW 14:34:22 81° NNW 14:37:33 17° ENE
Cosmos 1606 Rocket 3.5 14:30:50 10° S 14:35:13 74° E 14:39:41 10° NNE
SL-08 R/B 4.4 14:29:53 10° NNW 14:36:08 77° ENE 14:42:16 10° SSE
Ariane Rocket 4.1 14:33:16 15° E 14:36:20 26° NE 14:40:30 10° N
Meteor 2-10 Rocket 4.2 14:32:36 10° SSE 14:37:02 29° E 14:41:23 10° NNE
Cosmos 1315 Rocket 4.1 14:35:04 10° SE 14:38:03 21° E 14:39:57 15° NE
SKYMED 2 4.1 14:34:25 10° NNE 14:38:28 35° E 14:42:28 10° SSE
NOSS 2-1 (D) 3.2 14:36:09 10° WSW 14:39:38 78° NNW 14:42:41 18° ENE
Cosmos 1943 Rocket 3.2 14:35:57 10° W 14:41:09 40° NNW 14:46:22 10° NE
USA 215 3.4 14:35:28 14° E 14:41:16 70° S 14:47:49 10° W
Aureole 3 Rocket 3.8 14:36:50 10° SSE 14:41:28 54° E 14:47:57 10° NNE
Cosmos 1745 Rocket 4.0 14:36:03 10° NNW 14:42:20 67° ENE 14:48:38 10° SSE
Cosmos 2219 4.4 14:38:27 10° NW 14:43:55 46° WSW 14:49:22 10° S
Cosmos 292 Rocket 3.8 14:39:39 10° SSW 14:44:22 58° ESE 14:49:09 10° NE
ATLAS 2AS CENTAUR R/B 2.9 14:36:55 10° WNW 14:44:46 87° NNE 14:51:23 13° ESE
Cosmos 1726 4.5 14:42:10 10° WSW 14:45:16 24° WNW 14:48:23 10° N
SeaSat 1 2.6 14:41:02 12° ESE 14:45:33 58° NE 14:50:25 10° NW
MOS 1 Rocket 4.4 14:42:51 10° NE 14:46:29 22° E 14:50:16 10° SE
H-2A R/B 2.3 14:41:25 10° SE 14:46:41 52° ENE 14:51:59 10° NNW
CZ-4C R/B 4.2 14:44:29 10° N 14:47:34 41° WNW 14:50:43 10° SW
Cosmos 1441 Rocket 4.3 14:45:42 10° N 14:48:54 24° NE 14:49:34 23° ENE
COSMOS 2455 3.5 14:43:30 10° WNW 14:49:18 45° N 14:53:27 19° ENE
ATLAS 5 CENTAUR R/B 2.0 14:46:17 10° W 14:50:49 67° NNW 14:54:31 20° ENE
Meteor 2-3 Rocket 4.3 14:45:37 10° N 14:50:54 36° ENE 14:54:57 16° ESE
Cosmos 1455 3.1 14:48:13 10° SSE 14:51:25 26° E 14:53:32 16° NE
Cosmos 1386 Rocket 4.5 14:45:00 10° NNW 14:51:28 72° ENE 14:57:49 10° SSE
Cosmos 2082 4.0 14:45:44 10° NW 14:51:28 71° WSW 14:57:11 10° SSE
Okean-O 2.5 14:49:29 10° SSE 14:53:56 82° ENE 14:58:24 10° NNW
Cosmos 1331 Rocket 3.9 14:49:00 10° SSW 14:54:09 79° ESE 14:59:21 10° NE
Cosmos 2278 Rocket 3.5 14:52:45 10° WNW 14:57:36 28° N 15:01:18 15° NE
Lacrosse 5 2.1 14:53:36 10° W 14:58:36 61° S 15:01:48 22° ESE
ADEOS Rocket 3.5 14:54:00 10° NNE 15:00:10 68° WNW 15:07:01 10° SW
GEOS 3 Rocket 3.9 14:55:08 10° SE 15:00:30 73° SW 15:05:57 10° WNW
Cosmos 968 Rocket 4.4 14:55:26 10° NW 15:00:31 52° WSW 15:05:32 10° S
ARGOS 3.3 14:55:32 10° SE 15:00:47 52° ENE 15:06:04 10° NNW
OBJECT-B 3.2 15:02:34 12° NNE 15:02:34 12° NNE 15:03:01 10° NNE
Cosmos 1656 Rocket 4.4 14:56:08 10° WSW 15:01:40 52° NW 15:07:15 10° NE
Cosmos 1656 4.0 14:58:13 10° S 15:03:29 44° ESE 15:07:46 16° NE
Cosmos 1844 Rocket 3.5 15:00:22 10° NW 15:05:37 36° NNE 15:08:21 23° ENE
Cosmos 1408 2.5 15:03:08 10° NNW 15:06:48 85° WSW 15:10:29 10° S
Cosmos 1709 Rocket 4.0 15:05:28 10° NNW 15:11:51 66° ENE 15:18:12 10° SSE
GENESIS II 4.2 15:07:50 10° SW 15:11:51 66° SE 15:13:31 33° ENE
SL-08 RB Rocket 4.0 15:09:57 25° ESE 15:12:05 43° ENE 15:16:23 10° N
Cosmos 2058 Rocket 3.0 15:08:25 10° S 15:12:56 86° ESE 15:17:30 10° NNE
Cosmos 2369 4.5 15:09:07 10° SSE 15:13:58 30° ESE 15:15:13 27° E
CZ-4C R/B 2.7 15:07:50 10° WNW 15:14:15 82° NNE 15:19:15 24° ESE
Cosmos 1777 Rocket 3.9 15:09:03 10° NNW 15:14:17 71° NE 15:18:02 19° SE
Cosmos 2227 Rocket 3.8 15:09:50 10° NW 15:14:58 37° WSW 15:20:06 10° S
Cosmos 1076 Rocket 3.4 15:11:51 10° NNW 15:16:09 89° E 15:20:25 10° SSE
ERBS 3.0 15:13:46 10° W 15:16:59 44° S 15:17:55 34° SSE
HJ-1C 3.3 15:16:23 30° SE 15:17:51 64° ENE 15:21:14 10° N
Cosmos 2263 Rocket 2.1 15:12:09 10° NW 15:17:52 75° NE 15:21:42 22° SE
Cosmos 1689 Rocket 1.9 15:17:46 63° E 15:17:53 63° ESE 15:20:44 10° S
SJ 16-02 2.1 15:14:57 10° NNW 15:18:59 33° NE 15:19:45 31° ENE
Cosmos 1818 3.9 15:16:21 10° WSW 15:21:47 65° NNW 15:25:06 24° NE
CSL-04 Rocket 3.6 15:16:23 10° SSE 15:21:57 84° ENE 15:27:27 10° NNW
Cosmos 1892 3.8 15:18:17 10° NNW 15:22:02 46° W 15:25:46 10° S
Cosmos 1844 4.4 15:18:09 10° NW 15:23:20 37° NNE 15:25:24 28° ENE
Cosmos 1110 Rocket 4.3 15:19:35 10° SW 15:24:48 68° NW 15:30:01 10° NNE
H-2A R/B 3.5 15:21:00 10° N 15:24:52 36° WNW 15:28:38 10° SW
RESURS DK-1 3.6 15:21:19 10° NW 15:24:56 27° NNE 15:25:46 25° NE
Cosmos 2074 Rocket 4.4 15:20:11 10° N 15:26:06 42° ENE 15:28:40 29° ESE
Cosmos 1633 3.9 15:23:25 10° N 15:25:25 24° NNE 15:25:25 24° NNE
Cosmos 1302 Rocket 3.9 15:21:26 10° SSW 15:26:44 79° ESE 15:31:57 11° NE
COSMO-SKYMED 1 2.4 15:22:21 10° NNE 15:26:45 81° ESE 15:31:06 10° SSW
Cosmos 1939 Rocket 4.4 15:24:47 10° SSW 15:28:26 36° W 15:32:05 10° NNW
SAR-Lupe-4 3.7 15:27:46 10° NNE 15:31:23 76° WNW 15:34:57 10° SSW
NOSS 2-1 (E) 3.6 15:29:25 10° W 15:33:03 61° N 15:34:32 37° NE
SJ-6B 3.4 15:33:56 41° ENE 15:33:56 41° ENE 15:37:48 10° N
Cosmos 1697 Rocket 3.0 15:31:02 10° S 15:36:18 43° ESE 15:37:53 35° ENE
CZ-4B R/B 2.6 15:33:27 10° N 15:36:33 40° WNW 15:39:34 10° SW
Cosmos 1898 Rocket 4.1 15:32:43 10° NNW 15:37:45 39° NE 15:38:53 35° ENE
Cosmos 1825 2.6 15:34:13 10° NNW 15:37:59 63° W 15:41:44 10° S
ERS-2 3.3 15:35:20 10° N 15:38:50 43° WNW 15:42:18 10° SW
Cosmos 1300 4.2 15:36:01 10° SW 15:39:36 38° WNW 15:43:13 10° N
EO 1 Delta rocket 4.3 15:34:53 10° NNE 15:39:38 41° E 15:39:38 41° E
Cosmos 1400 Rocket 3.4 15:36:31 10° SSW 15:40:34 60° WNW 15:44:37 10° NNE
S3M 3.8 15:34:49 10° S 15:40:56 77° E 15:47:11 10° NNE
NOSS 7 (H) 4.3 15:40:55 10° WNW 15:44:05 85° NNE 15:44:14 80° E
Cosmos 2315 Rocket 4.1 15:38:38 10° SSE 15:44:35 51° E 15:50:34 10° NNE
YAOGAN 1 3.5 15:42:34 10° S 15:46:46 49° W 15:51:00 10° NNW
Cosmos 1766 Rocket 3.5 15:44:07 10° N 15:48:36 62° ENE 15:49:10 56° ESE
Meteor 2-1 Rocket 4.0 15:43:41 10° S 15:49:12 77° ESE 15:54:47 10° NNE
Okean 3 Rocket 3.4 15:47:05 10° N 15:51:28 68° ENE 15:52:03 60° ESE
SPOT 3 Rocket 4.0 15:51:40 41° ENE 15:52:00 41° ENE 15:56:54 10° NNW
Cosmos 44 3.1 15:48:54 10° SW 15:53:37 88° SE 15:55:01 48° ENE
Cosmos 1812 Rocket 3.4 15:49:25 10° S 15:53:47 72° E 15:58:09 10° NNE
Resurs 01 Rocket 2.8 15:56:30 28° NNE 15:56:30 28° NNE 15:59:19 10° N
CZ-4 R/B 3.0 15:52:56 10° SSW 15:56:28 33° W 15:59:59 10° NNW
Aureole 3 4.5 15:55:24 10° SW 15:58:07 31° WNW 16:00:59 10° N
Cosmos 2151 3.1 15:54:44 10° NNW 15:58:57 72° W 16:00:54 31° S
PSLV R/B 4.2 15:55:27 10° NNE 15:59:38 68° WNW 16:03:46 10° SSW
Cosmos 2369 Rocket 3.6 15:54:36 10° WNW 15:59:41 32° NNW 16:03:09 18° NE
Cosmos 1980 Rocket 3.4 15:54:48 10° S 15:57:31 26° SSE 15:57:31 26° SSE
SL-4 R/B 4.2 15:58:33 10° SW 16:00:26 14° SSW 16:00:57 13° SSW
MetOp-A 4.0 15:59:00 44° SE 16:00:39 70° ENE 16:06:01 10° NNW
ARIANE 5 R/B 4.3 16:02:29 21° NNE 16:02:29 21° NNE 16:04:48 10° N
Meteor 2-15 Rocket 4.4 15:56:00 10° SSW 16:02:11 90° E 16:08:23 10° NNE
Cosmos 1992 Rocket 3.8 15:58:08 10° SSW 16:03:19 71° ESE 16:05:12 40° NE
CZ-2C R/B 4.3 15:59:52 10° S 16:05:22 46° W 16:10:41 10° NNW
Cosmos 1553 Rocket 4.5 16:03:20 10° SSW 16:09:36 62° WNW 16:15:47 10° N
Cosmos 2154 Rocket 4.1 16:03:34 10° N 16:09:40 52° ENE 16:10:23 49° E
Genesis I 3.8 16:06:05 10° WNW 16:09:30 48° N 16:09:30 48° N
NOSS 3-4 (C) 4.5 16:07:07 10° WNW 16:13:32 48° SW 16:18:15 21° SSE
Cosmos 1315 Rocket 3.0 16:10:13 10° SSW 16:14:12 69° WNW 16:15:47 35° N
Ariane Rocket 2.9 16:13:29 51° SSE 16:14:48 89° ENE 16:19:58 10° NNW
Meteor 2-10 Rocket 3.8 16:13:38 10° SSW 16:18:47 65° WNW 16:23:51 10° NNE
Cosmos 220 Rocket 4.0 16:14:56 10° SSW 16:19:08 80° WSW 16:19:08 80° WSW
Cosmos 990 Rocket 4.0 16:14:28 10° NNW 16:19:44 64° NE 16:19:49 64° ENE
Cosmos 2360 4.2 16:17:12 10° SSW 16:22:32 62° SE 16:22:32 62° SE
SeaSat 1 3.4 16:20:50 26° S 16:23:14 44° WSW 16:28:00 10° NW
Cosmos 1408 Rocket 4.0 16:20:04 10° NNW 16:23:37 54° N 16:23:37 54° N
USA 215 3.6 16:22:49 41° SSE 16:24:50 55° SSW 16:31:16 10° W
NOSS 2-1 (C) 3.9 16:21:26 10° WNW 16:24:52 55° NNW 16:24:52 55° NNW
Cosmos 1441 Rocket 3.9 16:21:22 10° NNW 16:24:39 53° WNW 16:24:39 53° WNW
MOS 1 Rocket 3.3 16:20:39 10° NNE 16:25:16 82° WNW 16:30:11 10° SSW
H-2A R/B 3.3 16:21:07 10° SSW 16:26:16 43° W 16:31:29 10° NNW
Cosmos 1943 Rocket 3.7 16:21:35 10° WNW 16:26:17 27° N 16:28:10 23° NNE
Cosmos 1455 3.1 16:23:09 10° SW 16:26:51 48° WNW 16:28:40 26° N
NOSS 3-3 (A) 4.0 16:22:35 10° SW 16:28:34 58° SE 16:28:42 58° SE
NOSS 3-3 (C) 4.0 16:22:42 10° SSW 16:28:40 58° SE 16:28:46 58° SE
IRS-1A Rocket 4.3 16:27:59 42° S 16:29:55 75° WSW 16:35:28 10° NNW
NOSS 2-1 (D) 4.0 16:26:43 10° WNW 16:29:59 53° NNW 16:29:59 53° NNW
OBJECT-B 3.6 16:35:46 14° NNW 16:35:46 14° NNW 16:36:19 10° NNW
MOS 1 4.3 16:31:54 47° S 16:33:38 78° WSW 16:39:21 10° NNW
Meteor 2-3 Rocket 4.1 16:28:51 10° NNW 16:34:32 65° W 16:37:17 31° S
ATLAS 2AS CENTAUR R/B 3.6 16:28:11 10° WNW 16:35:24 47° SW 16:38:50 28° S
Resurs 1-3 4.4 16:37:00 45° N 16:37:00 45° N 16:40:05 10° NNW
ATLAS 5 CENTAUR R/B 2.1 16:31:06 10° WNW 16:35:56 66° NNE 16:36:03 66° NNE
COSMOS 2455 2.8 16:30:03 10° NW 16:36:06 66° NNE 16:36:35 64° ENE
CZ-2C R/B 3.9 16:33:46 10° NNE 16:36:23 28° NNE 16:36:23 28° NNE
Lacrosse 5 2.7 16:36:26 10° W 16:41:00 40° SSW 16:41:00 40° SSW
ARGOS 4.3 16:36:06 10° SSW 16:41:14 42° W 16:46:25 10° NNW
Cosmos 1610 Rocket 4.4 16:34:56 10° NNW 16:41:20 75° ENE 16:41:53 70° ESE
Cosmos 2278 Rocket 3.0 16:37:49 10° NW 16:43:08 38° NNE 16:43:08 38° NNE
Cosmos 1937 Rocket 3.8 16:38:55 10° NNW 16:43:18 57° N 16:43:18 57° N
Cosmos 1656 4.1 16:41:28 10° WSW 16:47:03 62° NW 16:49:12 37° NNE
Cosmos 1295 Rocket 4.4 16:43:02 10° NNW 16:48:48 68° NE 16:48:48 68° NE
Cosmos 1844 Rocket 2.6 16:44:31 10° NW 16:50:00 80° N 16:50:00 80° N
Cosmos 2184 Rocket 4.1 16:47:36 10° NNW 16:53:56 74° W 16:55:37 51° SSW
ERS-1 Rocket 4.5 16:58:50 26° NNE 16:58:50 26° NNE 17:01:28 10° N
Terra 3.8 16:59:43 19° NNE 16:59:43 19° NNE 17:01:28 10° N
Cosmos 2369 3.7 16:51:56 10° SW 16:57:12 75° WSW 16:57:12 75° WSW
SJ 16-02 2.4 16:53:29 10° NW 16:56:44 45° NW 16:56:44 45° NW
Cosmos 2263 Rocket 3.5 16:56:23 10° NW 17:01:29 34° WSW 17:03:24 27° SSW
CZ-4C R/B 3.3 16:56:16 10° WNW 17:02:50 54° SW 17:04:27 46° S
RESURS DK-1 4.1 16:59:27 10° NW 17:01:39 30° NNW 17:01:39 30° NNW
Cosmos 1818 4.1 17:00:40 10° WNW 17:05:44 52° N 17:05:44 52° N
Cosmos 1844 3.9 17:02:30 10° NW 17:07:17 66° NW 17:07:17 66° NW
Cosmos 2074 Rocket 4.4 17:05:43 10° NNW 17:11:49 58° W 17:13:23 45° SW
Cosmos 2327 Rocket 4.5 17:09:17 10° NNW 17:15:25 74° W 17:15:25 74° W
Cosmos 1697 Rocket 3.1 17:14:35 10° WSW 17:19:40 60° WNW 17:19:40 60° WNW
Cosmos 1898 Rocket 4.2 17:14:54 10° NW 17:19:10 54° WNW 17:19:10 54° WNW
Cosmos 2341 Rocket 4.3 17:18:18 10° NNW 17:23:21 60° N 17:23:21 60° N
SPOT 3 Rocket 4.5 17:32:20 46° WNW 17:32:20 46° WNW 17:36:30 10° NNW
Resurs 01 Rocket 3.6 17:34:04 26° NNW 17:34:04 26° NNW 17:36:07 10° NNW
Cosmos 1980 Rocket 4.2 17:38:05 10° SW 17:39:22 17° SW 17:39:22 17° SW
Cosmos 2369 Rocket 3.7 17:40:16 10° NW 17:44:55 30° N 17:44:55 30° N
Cosmos 1943 Rocket 3.8 18:06:26 10° NW 18:09:40 28° NNW 18:09:40 28° NNW
CZ-2C R/B 4.3 18:14:20 10° N 18:17:53 31° NNW 18:17:53 31° NNW
ATLAS 5 CENTAUR R/B 4.0 18:15:39 10° WNW 18:17:34 24° WNW 18:17:34 24° WNW
COSMOS 2455 4.2 18:16:10 10° NW 18:19:43 34° WNW 18:19:43 34° WNW
Cosmos 2278 Rocket 3.8 18:22:09 10° NW 18:24:58 31° NW 18:24:58 31° NW
Terra 4.4 18:38:36 17° NNW 18:38:36 17° NNW 18:39:39 10° NNW
SJ 16-02 4.5 18:33:34 10° WNW 18:33:43 10° WNW 18:33:43 10° WNW
Cosmos 2369 Rocket 4.5 19:24:55 10° NW 19:26:41 20° NNW 19:26:41 20° NNW
SL-16 R/B 4.4 21:08:45 24° N 21:08:45 24° N 21:11:15 10° NNW
Cosmos 2322 Rocket 4.5 21:49:19 20° NE 21:49:19 20° NE 21:51:32 10° NE
ADEOS II 4.3 22:17:18 10° NNE 22:19:33 20° NE 22:19:33 20° NE
SL-16 R/B 4.1 22:26:11 26° NNE 22:26:11 26° NNE 22:29:41 10° ENE
Cosmos 2333 Rocket 4.0 22:39:05 27° NNE 22:39:05 27° NNE 22:42:33 10° NE
Cosmos 2237 Rocket 4.0 22:41:41 27° NNE 22:41:41 27° NNE 22:44:37 10° NE
Resurs 1-4 Rocket 4.0 22:36:30 10° NNE 22:38:48 26° NNE 22:38:48 26° NNE
Cosmos 2360 Rocket 4.0 22:47:07 27° NNE 22:47:07 27° NNE 22:51:11 10° ENE
Cosmos 1980 Rocket 4.0 23:02:29 24° E 23:02:29 24° E 23:04:49 10° ESE
IDEFIX/ARIANE 42P 4.5 22:55:44 10° NE 22:59:36 24° E 22:59:36 24° E
CZ-2D R/B 3.8 23:01:57 10° NNE 23:04:24 29° NNE 23:04:24 29° NNE
SL-16 R/B 3.6 23:09:25 33° NNE 23:09:25 33° NNE 23:12:50 10° NE
Cosmos 2219 Rocket 3.8 23:11:31 28° N 23:11:31 28° N 23:15:57 10° NE
Cosmos 2322 Rocket 3.5 23:31:09 32° N 23:32:11 35° NNE 23:37:23 10° E
ARIANE 5 R/B 3.7 23:30:18 10° NNE 23:34:09 38° ENE 23:34:09 38° ENE
Lacrosse 4 Rocket 4.1 23:39:17 15° E 23:39:17 15° E 23:40:43 10° ENE
ADEOS Rocket 3.5 23:34:10 10° SE 23:39:29 51° ENE 23:45:11 10° NNW
USA 234 4.0 23:36:54 10° ENE 23:42:51 39° SE 23:42:51 39° SE
Cosmos 1867 4.2 23:51:40 53° NE 23:51:40 53° NE 23:55:54 10° ENE
